Location: Chippewa Lake
(41.0698°N, 81.9010°W)
Time: 22:01:23
(UTC+00:00)

CSL-04 Rocket - Pass Details

Date: 09 May 2021
Orbit: 807 x 859 km, 98.9° (Epoch: 17 June)

Event Time Altitude Azimuth Distance (km) Brightness Sun altitude
Rises 00:50:43 0° 169° (SSE) 3,309 6.4 -4.0°
Reaches altitude 10° 00:53:02 10° 170° (S) 2,384 5.7 -4.4°
Maximum altitude 00:58:18 76° 256° (WSW) 840 3.9 -5.2°
Drops below altitude 10° 01:03:40 10° 343° (NNW) 2,423 6.8 -6.1°
Sets 01:06:02 0° 345° (NNW) 3,367 7.6 -6.5°
